Temp
6 6 6 5 5 5 6 6 6 6 5 5 5 6 5 5 6 5 5 5 5 5 4 4 3 2 3 3 4 3 3 3
6 6 5 5 5 5 5 5 5 5 5 5 5 5 5 5 5 5 5 5 5 4 4 4 3 2 2 2 1 2 3 2
6 5 5 5 5 5 4 5 4 4 4 4 4 4 4 4 4 4 4 4 4 4 4 3 3 2 2 1 0 -1 0 1
5 5 6 5 5 5 5 4 4 3 3 3 3 3 3 3 3 4 4 3 3 3 3 3 2 2 1 0 -0 -0 -1 -1
6 6 5 5 5 4 4 4 3 3 2 2 2 2 2 2 2 3 3 3 3 3 3 2 2 1 1 0 -0 -0 -0 -1
6 5 5 5 5 4 3 3 2 2 1 1 1 1 1 1 1 2 2 2 2 2 2 2 1 1 0 -0 -1 -1 -1 -1
6 4 5 4 4 3 3 2 1 1 1 1 1 1 1 1 0 0 1 1 1 1 1 1 1 0 -0 -0 -1 -1 -2 -2
5 4 4 4 4 3 2 1 1 1 0 0 0 0 -0 -0 -0 -0 0 0 1 0 0 0 -0 -1 -1 -1 -2 -2 -2 -3
4 4 4 3 3 3 2 1 1 -0 -0 -1 -1 -1 -1 -1 -1 -1 -0 -0 -0 -1 -1 -1 -1 -2 -2 -2 -2 -3 -3 -3
3 4 3 3 3 2 1 0 -0 -1 -1 -1 -1 -2 -2 -2 -1 -1 -1 -2 -2 -2 -2 -2 -2 -3 -3 -3 -3 -3 -4 -5
3 3 2 2 2 1 1 -0 -1 -1 -1 -2 -2 -2 -2 -2 -2 -2 -1 -3 -3 -3 -3 -4 -4 -4 -4 -4 -4 -4 -4 -6
2 2 2 1 1 1 -0 -1 -1 -2 -2 -2 -3 -3 -3 -3 -2 -2 -2 -4 -4 -5 -5 -6 -6 -6 -5 -5 -5 -6 -6 -6
1 1 0 0 0 -0 -1 -1 -2 -2 -2 -3 -3 -3 -3 -3 -3 -3 -3 -5 -5 -6 -6 -6 -7 -7 -6 -6 -6 -5 -6 -6
1 0 -0 0 -0 -1 -1 -2 -2 -3 -3 -4 -4 -4 -4 -4 -4 -4 -4 -6 -6 -7 -7 -7 -7 -7 -7 -6 -6 -5 -6 -6
-0 -1 -1 -1 -1 -2 -2 -2 -2 -3 -4 -4 -4 -5 -4 -4 -5 -5 -6 -7 -7 -8 -8 -8 -7 -7 -7 -7 -6 -6 -6 -6
-2 -2 -3 -2 -1 -2 -2 -2 -2 -3 -4 -5 -5 -5 -5 -5 -6 -6 -7 -8 -8 -8 -8 -7 -7 -7 -7 -7 -7 -6 -6 -6
-3 -3 -2 -3 -3 -3 -3 -3 -3 -4 -5 -6 -6 -6 -5 -6 -7 -7 -8 -8 -8 -8 -7 -7 -7 -7 -7 -7 -7 -7 -6 -6
-3 -3 -2 -3 -3 -3 -4 -4 -4 -5 -6 -6 -6 -6 -6 -7 -7 -8 -9 -8 -8 -8 -7 -7 -7 -7 -7 -7 -7 -7 -7 -7
-2 -3 -3 -3 -4 -4 -4 -5 -5 -6 -6 -7 -6 -6 -7 -7 -8 -8 -8 -8 -8 -8 -8 -8 -8 -8 -7 -7 -7 -7 -7 -7
Height
3123 3124 3124 3122 3121 3120 3118 3116 3116 3114 3112 3111 3110 3108 3109 3107 3106 3105 3104 3103 3101 3099 3098 3097 3096 3093 3093 3092 3092 3092 3091 3091
3119 3120 3119 3117 3116 3115 3114 3111 3110 3108 3107 3105 3104 3103 3103 3101 3100 3099 3098 3096 3094 3092 3090 3088 3085 3084 3083 3083 3084 3084 3082 3080
3114 3116 3116 3114 3112 3110 3109 3106 3105 3104 3103 3102 3100 3100 3098 3096 3095 3093 3092 3090 3087 3085 3083 3081 3078 3076 3074 3073 3072 3073 3073 3073
3109 3110 3111 3109 3107 3107 3105 3103 3102 3101 3099 3098 3097 3095 3093 3091 3089 3087 3086 3084 3081 3079 3076 3074 3071 3069 3067 3066 3064 3063 3063 3064
3103 3106 3107 3106 3104 3102 3100 3099 3098 3096 3095 3094 3093 3091 3090 3087 3085 3082 3080 3078 3075 3072 3069 3066 3063 3060 3058 3057 3056 3055 3053 3053
3095 3098 3100 3100 3097 3097 3096 3095 3094 3094 3092 3091 3090 3088 3086 3083 3081 3078 3073 3070 3068 3065 3063 3060 3056 3052 3049 3047 3046 3045 3044 3044
3088 3091 3094 3093 3091 3092 3092 3091 3090 3090 3088 3086 3085 3083 3081 3079 3076 3072 3069 3065 3062 3058 3055 3052 3048 3045 3042 3039 3037 3036 3034 3032
3082 3085 3087 3087 3085 3086 3086 3085 3085 3085 3083 3082 3080 3078 3077 3074 3071 3067 3063 3060 3056 3053 3049 3045 3041 3037 3034 3032 3029 3027 3025 3023
3076 3078 3080 3080 3079 3080 3081 3080 3079 3079 3078 3076 3075 3074 3071 3068 3065 3061 3057 3054 3050 3046 3042 3038 3033 3029 3026 3024 3022 3021 3018 3015
3071 3072 3075 3075 3074 3074 3074 3073 3073 3072 3071 3071 3070 3067 3064 3060 3057 3054 3051 3049 3043 3039 3036 3032 3026 3022 3020 3018 3016 3014 3012 3006
3065 3067 3069 3069 3069 3069 3068 3068 3068 3066 3066 3065 3064 3061 3058 3054 3051 3048 3045 3043 3037 3033 3029 3026 3022 3018 3016 3014 3012 3010 3006 3000
3061 3062 3063 3062 3063 3063 3062 3062 3062 3061 3060 3059 3058 3056 3053 3049 3046 3043 3039 3038 3033 3029 3025 3022 3019 3016 3013 3012 3010 3007 3005 2999
3054 3055 3056 3056 3057 3058 3057 3056 3055 3055 3054 3054 3052 3051 3048 3044 3041 3036 3033 3032 3029 3025 3021 3019 3016 3014 3011 3009 3007 3005 3003 2999
3047 3049 3051 3052 3053 3052 3050 3049 3048 3049 3050 3048 3047 3044 3042 3039 3035 3031 3028 3027 3024 3021 3017 3015 3013 3011 3009 3007 3005 3003 3001 2997
3041 3042 3046 3048 3047 3047 3046 3044 3043 3043 3044 3043 3042 3039 3035 3033 3030 3027 3025 3024 3021 3018 3015 3013 3011 3009 3007 3005 3002 2999 2998 2995
3034 3034 3039 3041 3039 3042 3041 3040 3038 3038 3039 3037 3035 3033 3030 3027 3025 3023 3021 3020 3018 3016 3014 3012 3009 3006 3005 3003 3000 2998 2995 2993
3027 3032 3033 3034 3035 3036 3035 3034 3034 3034 3033 3031 3030 3028 3025 3023 3021 3020 3018 3017 3015 3014 3012 3009 3006 3004 3003 3001 2998 2996 2993 2990
3020 3022 3025 3027 3026 3025 3028 3027 3028 3029 3028 3025 3025 3022 3020 3019 3018 3017 3016 3015 3013 3011 3009 3007 3005 3003 3002 3000 2997 2995 2993 2990
3009 3013 3016 3017 3018 3020 3021 3021 3023 3022 3022 3022 3020 3017 3016 3016 3015 3014 3014 3012 3011 3009 3007 3005 3004 3003 3001 3000 2997 2995 2992 2990
Wind_Speed
33 32 30 32 27 22 20 21 20 21 21 23 23 25 24 26 27 28 29 31 33 34 35 37 39 43 43 38 46 45 45 47
34 31 30 33 28 24 22 21 20 20 21 23 23 23 23 24 26 27 29 31 33 35 37 39 41 40 40 38 42 45 46 47
36 33 31 32 28 25 21 21 20 18 18 17 18 19 19 21 22 24 23 25 28 30 34 37 39 40 41 41 41 39 39 41
37 37 32 32 28 23 24 21 18 16 16 17 18 20 22 25 26 29 30 30 31 31 31 32 33 35 38 39 40 40 39 38
37 35 28 28 24 24 22 20 19 18 17 17 19 20 21 23 25 28 29 30 31 32 33 32 32 32 34 36 37 39 41 39
40 34 29 23 24 22 21 20 17 16 17 19 21 22 24 26 27 27 27 29 31 31 33 33 33 32 32 32 35 40 40 41
43 32 23 21 23 19 19 19 17 18 19 20 21 22 23 25 25 26 27 29 30 31 32 32 33 33 32 30 32 32 34 39
41 32 23 22 20 21 19 20 19 19 19 20 21 23 25 25 25 26 28 30 31 31 31 31 32 32 31 30 29 29 30 33
36 33 23 19 22 20 20 20 20 20 20 20 22 24 25 26 27 28 30 30 30 30 30 30 30 28 28 28 27 28 31 36
35 31 23 19 21 21 21 21 20 21 22 23 25 25 26 26 27 29 30 29 27 28 29 29 26 23 21 21 24 25 28 27
34 28 22 19 19 22 23 22 21 23 24 27 27 27 28 27 28 30 30 28 26 26 26 24 20 15 15 16 17 20 22 18
30 26 22 17 18 21 23 23 24 26 27 27 27 28 28 27 28 29 29 26 25 23 23 20 17 14 12 13 16 16 16 13
28 27 19 15 17 17 19 22 25 27 28 27 27 29 26 26 27 27 27 24 23 20 21 19 17 18 14 15 18 18 16 15
32 25 16 15 15 16 18 22 25 27 27 26 27 26 25 25 25 25 25 21 20 18 17 17 14 14 15 17 17 16 18 14
29 22 23 24 26 23 22 22 23 25 25 26 26 23 22 23 23 23 22 18 17 15 14 14 17 17 17 17 18 18 16 16
32 26 16 20 29 24 25 26 24 24 25 25 22 22 21 20 21 22 18 15 14 14 13 16 17 17 16 15 15 15 15 13
21 23 24 20 23 23 25 25 24 23 25 22 20 18 20 20 19 18 14 11 12 13 14 17 15 15 14 13 13 14 15 14
31 29 28 26 24 28 22 22 23 25 24 20 18 18 18 17 15 11 11 11 12 13 13 14 13 13 13 12 12 12 11 11
27 32 29 30 18 19 22 22 23 22 21 18 18 16 14 11 9 8 11 12 12 11 11 11 11 10 10 9 9 10 10 10
Wind_Direction
286 294 302 309 297 288 285 285 287 289 288 287 287 289 293 291 290 290 291 290 289 287 284 279 274 270 270 267 267 269 263 264
279 285 294 305 299 294 292 292 295 296 297 298 298 301 303 300 299 298 296 293 292 291 291 291 290 287 284 280 269 264 273 267
278 278 289 298 296 293 296 297 298 297 296 300 305 307 308 307 306 304 304 304 300 295 291 288 288 288 287 283 278 281 277 275
272 276 287 295 294 295 298 299 299 301 304 307 308 311 312 310 312 311 311 309 306 304 301 297 291 287 285 284 283 279 275 275
264 274 277 285 289 297 299 298 299 303 306 309 311 313 314 312 310 306 304 302 302 301 300 299 298 294 286 281 280 279 279 275
272 268 277 282 295 298 297 296 298 299 302 304 307 309 308 306 304 303 305 308 307 304 299 296 296 296 293 289 281 275 274 272
262 261 266 288 292 293 291 288 288 292 299 305 309 311 310 308 309 311 310 306 304 302 300 297 293 291 291 295 294 288 279 270
252 257 261 286 287 291 286 283 284 290 297 304 308 309 308 310 313 314 313 311 308 304 300 297 293 288 289 288 290 286 280 275
246 248 261 269 280 281 275 274 280 286 293 302 307 308 311 314 317 319 318 313 310 308 305 300 294 292 288 285 288 284 282 283
235 241 253 260 271 274 270 272 280 288 295 300 304 310 314 318 320 320 318 313 313 310 307 302 299 299 297 297 298 282 291 293
230 244 245 254 265 270 271 273 282 290 294 298 304 312 317 320 321 319 316 311 312 311 309 306 306 305 314 314 310 300 308 312
233 242 245 249 261 269 274 278 281 284 289 295 302 310 314 318 318 316 314 309 312 312 308 306 303 301 312 318 319 322 328 341
237 243 247 255 259 265 281 283 279 280 284 292 300 305 309 314 314 312 309 309 310 311 308 304 294 289 298 309 307 306 307 318
239 248 253 253 256 285 292 286 281 279 280 287 298 301 305 311 311 309 308 309 309 311 311 313 297 289 298 300 304 306 309 310
244 243 253 260 265 270 293 293 286 281 280 288 294 295 305 307 307 305 304 308 306 308 304 309 308 306 304 301 302 307 308 309
240 229 286 267 269 269 284 287 282 278 281 287 288 293 298 303 304 302 303 305 302 303 294 308 308 308 308 308 307 306 311 314
266 267 268 270 266 263 273 283 278 276 282 279 281 290 299 299 300 298 301 302 301 305 303 311 314 314 314 313 311 314 315 318
262 263 266 266 261 260 275 278 272 280 281 269 275 282 289 294 295 292 299 301 303 309 312 312 317 318 318 316 318 320 323 325
260 256 266 261 266 263 269 271 272 280 267 264 268 276 279 279 286 286 299 303 310 312 313 315 318 317 314 313 320 323 327 330